Regional Weather Roundup
Issued by NWS

Home | Current Version | Previous Version | Text Only | Print | Product List | Glossary On
Versions: 1 2 3 4 5 6 7 8 9 10 11 12 13 14 15 16 17 18 19 20 21 22 23 24 25 26 27 28 29 30 31 32 33 34 35 36 37 38 39 40 41 42 43 44 45 46 47 48 49 50
000
ASUS44 KJAN 230203
RWRMS

MISSISSIPPI HOURLY WEATHER ROUNDUP
NATIONAL WEATHER SERVICE JACKSON MS
800 PM CST MON DEC 22 2014

NOTE: "FAIR: INDICATES FEW OR NO CLOUDS BELOW 12,000 FEET WITH NO
SIGNIFICANT WEATHER AND/OR OBSTRUCTIONS TO VISIBILITY.

MSZ001>002-007>008-010>013-018>021-025>028-034>036-230300-
NORTHWEST MISSISSIPPI

CITY           SKY/WX    TMP DP  RH WIND       PRES   REMARKS
CLARKSDALE     MOCLDY    59  59 100 S9        29.65R
CLEVELAND      CLOUDY    60  59  99 S8        29.64R
GREENWOOD      MOCLDY    61  58  90 S10       29.66S
GREENVILLE     CLOUDY    60  57  89 S7        29.64R
GRENADA        CLOUDY    59  55  88 CALM      29.67S
OLIVE BRANCH   LGT RAIN  55  55 100 SW7       29.64S FOG
OXFORD         CLOUDY    54  54 100 SE8G16    29.68S FOG
TUNICA         CLOUDY    55  55 100 S3        29.64S FOG
$$

MSZ003>006-009-014>017-022>024-029>033-037>039-230300-
NORTHEAST MISSISSIPPI

CITY           SKY/WX    TMP DP  RH WIND       PRES   REMARKS
COLUMBUS AFB   CLOUDY    57  57 100 S12       29.72S
CORINTH        CLOUDY    55  54  94 SE13      29.68S FOG
GOLDN TRIANGLE CLOUDY    55  54  94 MISG      29.72  FOG
STARKVILLE     FOG       55  55 100 SE9       29.71F VSB 1/2
TUPELO         CLOUDY    56  54  93 S9        29.70R FOG
$$

MSZ040-058-230300-
CENTRAL MISSISSIPPI

CITY           SKY/WX    TMP DP  RH WIND       PRES   REMARKS
JACKSON INTL   CLOUDY    63  62  97 S5        29.69R FOG
JACKSON HAWKNS CLOUDY    62  61  96 SE6       29.69R FOG
MERIDIAN KEY   CLOUDY    64  62  93 S8        29.72F
MERIDIAN NAS   FOG       59  59 100 SE8       29.74S VSB 1/2
RAYMOND        HAZE      59  54  82 SE3       29.68R VSB 1/4
VICKSBURG      PTCLDY    63  59  87 S8        29.65S
$$

MSZ059>079-230300-
SOUTH MISSISSIPPI

CITY           SKY/WX    TMP DP  RH WIND       PRES   REMARKS
HATTIESBURG    PTCLDY    68  66  93 S7        29.74R
MCCOMB         PTCLDY    66  62  87 S8        29.70R
NATCHEZ        CLOUDY    68  61  77 S12G17    29.68R
PINE BELT      PTCLDY    66  63  88 S9        29.74R
$$

MSZ080>082-230300-
COASTAL MISSISSIPPI

CITY           SKY/WX    TMP DP  RH WIND       PRES   REMARKS
BAY ST LOUIS   CLOUDY    68  64  88 SW8       29.75R
BILOXI         PTCLDY    64  64 100 SW9       29.76R
PASCAGOULA     MOCLDY    68  65  90 S5        29.77R
GULFPORT       MOCLDY    65  64  97 S7        29.75R FOG
$$


USA.gov is the U.S. government's official web portal to all federal, state and local government web resources and services.